FW1460 Weather Reports


Display with metric or nautical units.
time (UTC)temp
F
wind
direction
speed
MPH
gust
MPH
rain 1hr
in
rain 24hr
in
rain mn
in
humidity
%
barometer
mb
20220528203041 70 184 4.0 11.0 0.00 0.11 0.11 82 1004.6
20220528201631 71 193 4.0 9.0 0.00 0.11 0.11 82 1004.6
20220528200054 70 160 4.0 10.0 0.00 0.11 0.11 83 1004.4
20220528194622 70 200 3.0 8.0 0.00 0.11 0.11 82 1004.4
20220528193025 69 211 3.0 11.0 0.00 0.11 0.11 84 1004.5
20220528191524 70 189 4.0 10.0 0.00 0.11 0.11 81 1004.6
20220528190023 71 175 4.0 9.0 0.00 0.11 0.11 81 1004.6
20220528184524 70 147 2.0 9.0 0.00 0.11 0.11 84 1004.6
20220528183023 68 171 4.0 11.0 0.00 0.11 0.11 83 1004.6
20220528181516 69 279 2.0 8.0 0.00 0.11 0.11 86 1004.6
20220528180034 67 183 1.0 6.0 0.00 0.11 0.11 87 1004.8
20220528174511 66 180 2.0 10.0 0.00 0.11 0.11 87 1004.8
20220528173022 67 243 3.0 8.0 0.00 0.11 0.11 87 1004.8
20220528171510 66 173 3.0 10.0 0.00 0.11 0.11 87 1004.8
20220528170009 66 198 3.0 7.0 0.00 0.11 0.11 87 1005.1
20220528164506 65 203 3.0 12.0 0.00 0.12 0.11 88 1005.1
20220528163007 65 198 4.0 11.0 0.00 0.12 0.11 88 1005.0
20220528161507 65 138 6.0 11.0 0.00 0.12 0.11 88 1005.2
20220528160101 65 252 4.0 10.0 0.00 0.12 0.11 89 1005.3
20220528154602 64 172 4.0 9.0 0.00 0.12 0.11 90 1005.5
20220528153058 64 175 5.0 11.0 0.00 0.12 0.11 89 1005.7
20220528151559 64 159 5.0 12.0 0.00 0.12 0.11 90 1005.6
20220528150101 64 195 3.0 12.0 0.00 0.12 0.11 91 1005.4
20220528144609 63 189 6.0 13.0 0.00 0.12 0.11 91 1005.5
20220528143100 64 180 2.0 7.0 0.00 0.12 0.11 92 1005.6
20220528141554 63 197 3.0 9.0 0.00 0.12 0.11 92 1005.6
20220528140053 63 208 4.0 11.0 0.00 0.12 0.11 92 1005.5
20220528134554 63 198 6.0 14.0 0.00 0.12 0.11 93 1005.7
20220528133052 63 183 4.0 10.0 0.00 0.12 0.11 93 1005.9
20220528131654 63 145 4.0 11.0 0.00 0.12 0.11 93 1005.8
20220528130110 63 165 5.0 12.0 0.00 0.12 0.11 93 1005.9
20220528124549 63 163 4.0 12.0 0.00 0.12 0.11 93 1006.0
20220528123049 63 161 3.0 10.0 0.00 0.12 0.11 93 1005.8
20220528121547 63 161 4.0 10.0 0.00 0.12 0.11 93 1005.9
20220528120049 63 134 3.0 9.0 0.00 0.12 0.11 93 1005.9
20220528114616 63 163 3.0 7.0 0.00 0.13 0.11 93 1006.0
20220528113046 63 158 2.0 11.0 0.00 0.13 0.11 93 1006.1
20220528111547 63 228 3.0 10.0 0.00 0.13 0.11 93 1006.0
20220528110047 63 150 3.0 11.0 0.00 0.13 0.11 93 1005.8
20220528104546 63 203 4.0 12.0 0.00 0.13 0.11 93 1005.9
20220528103041 64 221 6.0 16.0 0.00 0.13 0.11 93 1005.7
20220528101540 64 152 4.0 10.0 0.00 0.13 0.11 93 1005.6
20220528100050 64 198 6.0 15.0 0.01 0.13 0.11 93 1005.6
20220528094537 64 133 7.0 16.0 0.01 0.13 0.11 93 1005.5
20220528093036 64 218 3.0 11.0 0.01 0.13 0.11 93 1005.6
20220528091536 65 196 4.0 8.0 0.02 0.13 0.11 93 1005.6
20220528090037 64 159 3.0 9.0 0.04 0.12 0.10 93 1005.5
20220528084534 64 182 3.0 14.0 0.06 0.16 0.10 93 1005.6
20220528083032 64 197 5.0 14.0 0.06 0.16 0.10 92 1005.8
20220528081531 65 195 5.0 17.0 0.05 0.15 0.09 93 1006.0
20220528080033 64 199 3.0 8.0 0.03 0.12 0.06 93 1006.1
20220528074529 64 165 2.0 9.0 0.01 0.14 0.04 93 1006.1
20220528073023 63 194 1.0 7.0 0.02 0.14 0.04 93 1006.3
20220528071521 63 187 1.0 4.0 0.04 0.14 0.04 92 1006.5
20220528070019 63 157 3.0 8.0 0.03 0.13 0.03 92 1007.0
20220528064517 63 177 1.0 10.0 0.03 0.13 0.03 92 1007.0
20220528063016 63 169 3.0 8.0 0.02 0.12 0.02 92 1007.4
20220528061514 63 190 2.0 7.0 0.00 0.10 0.00 92 1007.9
20220528060014 63 186 3.0 6.0 0.00 0.10 0.00 92 1007.9
20220528054513 63 175 4.0 11.0 0.00 0.10 0.00 92 1008.0
20220528053011 63 195 4.0 10.0 0.00 0.10 0.00 92 1008.0
20220528051508 63 216 4.0 9.0 0.00 0.10 0.00 92 1008.3
20220528050006 63 177 3.0 8.0 0.00 0.10 0.00 92 1008.7
20220528044506 62 162 4.0 14.0 0.00 0.10 0.00 92 1008.7
20220528043003 63 167 5.0 14.0 0.00 0.10 0.00 92 1009.0
20220528041606 63 186 4.0 15.0 0.00 0.10 0.00 91 1009.1
20220528040105 63 183 4.0 12.0 0.00 0.10 0.00 91 1009.3
20220528034603 63 203 4.0 11.0 0.00 0.10 0.10 91 1009.4
20220528033055 63 268 6.0 12.0 0.00 0.10 0.10 91 1009.6
20220528031553 63 171 3.0 16.0 0.00 0.10 0.10 91 1009.4
20220528030106 63 169 3.0 11.0 0.00 0.10 0.10 91 1009.6
20220528024556 63 182 5.0 14.0 0.00 0.10 0.10 91 1009.7
20220528023052 63 210 4.0 14.0 0.00 0.10 0.10 91 1009.5
20220528021635 64 200 5.0 10.0 0.00 0.10 0.10 92 1009.8
20220528020050 64 167 5.0 14.0 0.00 0.10 0.10 91 1009.8
20220528014557 64 163 6.0 15.0 0.00 0.10 0.10 91 1009.7
20220528013051 64 236 4.0 12.0 0.00 0.10 0.10 92 1009.6
20220528011550 64 206 4.0 8.0 0.00 0.10 0.10 92 1009.7
20220528010047 64 160 4.0 11.0 0.00 0.10 0.10 91 1009.9
20220528004545 63 142 4.0 8.0 0.00 0.10 0.10 91 1010.1
20220528003043 63 168 4.0 9.0 0.00 0.10 0.10 91 1010.3
20220528001546 63 145 2.0 8.0 0.00 0.10 0.10 90 1010.6
20220528000050 63 181 4.0 8.0 0.00 0.10 0.10 90 1010.7
20220527234539 64 156 4.0 10.0 0.00 0.10 0.10 89 1010.8
20220527233038 64 158 4.0 12.0 0.00 0.10 0.10 88 1011.1
20220527231539 65 206 2.0 10.0 0.00 0.10 0.10 88 1011.2
20220527230138 65 164 4.0 10.0 0.00 0.10 0.10 88 1011.1
20220527224537 65 182 2.0 9.0 0.00 0.10 0.10 89 1011.0
20220527223034 65 196 3.0 9.0 0.00 0.10 0.10 89 1011.0
20220527221534 65 196 3.0 10.0 0.00 0.10 0.10 89 1011.3
20220527220037 64 202 2.0 8.0 0.00 0.10 0.10 89 1011.4
20220527214533 64 195 4.0 11.0 0.00 0.10 0.10 88 1011.6
20220527213033 65 186 4.0 13.0 0.00 0.10 0.10 87 1011.8
20220527211531 67 161 3.0 14.0 0.00 0.10 0.10 86 1011.9
20220527210029 68 175 5.0 16.0 0.00 0.10 0.10 84 1011.9
20220527204541 68 165 4.0 14.0 0.00 0.10 0.10 84 1011.7